Key West NAF, FL

10:16 PM EDT on June 22, 2017 (GMT -0400)
Key West Naval Air Station

Weather History for KNQX - February, 2014

Change the Weather History Date:

Monday, February 17, 2014

  Actual Average Record
Temperature  
Mean Temperature 72 °F -  
Max Temperature 79 °F 76 °F 84 °F (1997)
Min Temperature 66 °F 66 °F 52 °F (1958)
Cooling Degree Days 8    
Growing Degree Days 22 (Base 50)    
Moisture  
Dew Point 61 °F    
Average Humidity 71    
Maximum Humidity 81    
Minimum Humidity 60    
Precipitation  
Precipitation 0.00 in - - ()
Sea Level Pressure  
Sea Level Pressure 30.16 in    
Wind  
Wind Speed 8 mph (ENE)    
Max Wind Speed 15 mph    
Max Gust Speed 20 mph    
Visibility 10 miles    
Events      
Averages and records for this station are not official NWS values.
T = Trace of Precipitation, MM = Missing Value Source: NWS Daily Summary

Daily Weather History Graph

Daily Weather History Graph

Search for Another Location

Airport or City:

Trip Planner

Search our weather history database for the weather conditions in past years. The results will help you decide how hot, cold, wet, or windy it might be!

Date:

Astronomy

Feb. 17, 2014 Rise Set
Actual Time 6:59 AM EST 6:22 PM EST
Civil Twilight 6:35 AM EST 6:45 PM EST
Nautical Twilight 6:09 AM EST 7:12 PM EST
Astronomical Twilight 5:42 AM EST 7:39 PM EST
Moon 8:52 PM EST (2/17) 8:19 AM EST (2/17)
Length of Visible Light 12h 09m
Length of Day
11h 23m
Waning Gibbous, 93% of the Moon is Illuminated
Feb 17
Waning Gibbous
Feb 22
Last Quarter
Mar 1
New
Mar 8
First Quarter
Mar 16
Full

Hourly Weather History & Observations

Time (EST) Temp. Dew Point Humidity Pressure Visibility Wind Dir Wind Speed Gust Speed Precip Events Conditions
12:53 AM 66.9 °F 57.9 °F 73% 30.17 in 10.0 mi NNE 5.8 mph - N/A   Clear
1:53 AM 66.9 °F 57.0 °F 70% 30.15 in 10.0 mi NE 5.8 mph - N/A   Clear
2:53 AM 66.0 °F 57.0 °F 73% 30.14 in 10.0 mi NNE 4.6 mph - N/A   Clear
3:53 AM 66.0 °F 57.9 °F 75% 30.13 in 10.0 mi NE 4.6 mph - N/A   Clear
4:53 AM 66.0 °F 59.0 °F 78% 30.13 in 10.0 mi NNE 4.6 mph - N/A   Clear
5:53 AM 66.9 °F 60.1 °F 79% 30.14 in 10.0 mi NE 5.8 mph - N/A   Clear
6:53 AM 66.9 °F 61.0 °F 81% 30.15 in 10.0 mi NNE 6.9 mph - N/A   Clear
7:53 AM 69.1 °F 62.1 °F 78% 30.17 in 10.0 mi NNE 6.9 mph - N/A   Clear
8:53 AM 72.0 °F 62.1 °F 71% 30.19 in 10.0 mi NE 11.5 mph - N/A   Clear
9:53 AM 73.0 °F 63.0 °F 71% 30.20 in 10.0 mi NE 12.7 mph - N/A   Clear
10:53 AM 75.9 °F 63.0 °F 64% 30.20 in 10.0 mi NE 10.4 mph - N/A   Clear
11:53 AM 77.0 °F 62.1 °F 60% 30.19 in 10.0 mi ENE 11.5 mph - N/A   Clear
12:53 PM 79.0 °F - N/A% 30.17 in 10.0 mi East 13.8 mph - N/A   Clear
1:53 PM 79.0 °F - N/A% 30.14 in 10.0 mi East 15.0 mph - N/A   Clear
2:53 PM 79.0 °F - N/A% 30.13 in 10.0 mi East 15.0 mph - N/A   Clear
3:53 PM 78.1 °F - N/A% 30.12 in 10.0 mi ENE 12.7 mph - N/A   Clear
4:53 PM 75.9 °F 62.1 °F 62% 30.12 in 10.0 mi ENE 12.7 mph 19.6 mph N/A   Clear
5:53 PM 73.9 °F 61.0 °F 64% 30.15 in 10.0 mi East 12.7 mph 18.4 mph N/A   Clear
6:53 PM 73.0 °F 62.1 °F 68% 30.16 in 10.0 mi ENE 11.5 mph - N/A   Clear
7:53 PM 72.0 °F 62.1 °F 71% 30.17 in 10.0 mi East 13.8 mph - N/A   Clear
8:53 PM 72.0 °F 61.0 °F 68% 30.18 in 10.0 mi ENE 12.7 mph - N/A   Clear
9:53 PM 71.1 °F 62.1 °F 73% 30.19 in 10.0 mi ENE 11.5 mph - N/A   Clear
10:53 PM 71.1 °F 63.0 °F 75% 30.19 in 10.0 mi ENE 9.2 mph - N/A   Clear
11:53 PM 71.1 °F 63.0 °F 75% 30.19 in 10.0 mi ENE 9.2 mph - N/A   Clear